sat.trackr.live / text

‹ back to catalog

STARLINK-11507 [DTC]

NORAD 62519 · 2025-004J

PAYLOAD ACTIVE UNKNOWN

§ Identity

Operator
Country
US
Launch date
2025-01-08
Launch site
AFETR
Launch vehicle
Mass (kg)
RCS (m²)

Purposes: comms

External: N2YO · Heavens-Above · Gunter

§ Orbital elements

Epoch: 2026-05-23T19:44:35.525760Z

Period
91.67 min
Inclination
43.0005°
Eccentricity
0.0001493
Mean motion
15.70853500 rev/d
Perigee alt
355.5 km
Apogee alt
357.5 km
Semi-major
6,734.6 km
B*
1.1479e-3
RAAN
337.9714°
Arg perigee
259.2668°
Mean anomaly
100.8032°
Rev number
7,902

§ Raw data

STARLINK-11507 [DTC]1 62519U 25004J   26143.82263340  .00149603  00000+0  11479-2 0  99942 62519  43.0005 337.9714 0001493 259.2668 100.8032 15.70853500 79022

JSON: /api/v1/satellites/62519 · /tle

For live sub-satellite position, see the globe view (requires WebGL).

§ Visibility from observer

Set your observer location to see the next 7 days of passes ≥ 10°. The values pass through the URL so the page stays shareable.

No JS? Fill the form by hand. The geolocation button needs JavaScript.